Location: Ayer Observatory
(42.2600°N, 71.0700°W)
Time: 08:11:05
(UTC-04:00)

FO-29 - Pass Details

Date: 28 August 2019
Orbit: 800 x 1321 km, 98.6° (Epoch: 19 September)

Event Time Altitude Azimuth Distance (km) Brightness Sun altitude
Exits shadow 01:59:14 15° 88° (E) 2,089 11.4 -35.3°
Maximum altitude 02:01:11 18° 61° (ENE) 1,905 11.5 -35.1°
Drops below altitude 10° 02:04:32 10° 21° (NNE) 2,385 12.3 -34.9°
Sets 02:07:35 0° 2° (N) 3,336 13.2 -34.7°
